Location: Newark
(29.9790°N, 31.1340°E)
Time: 18:59:22
(UTC+00:00)

Tiros 1 - Pass Details

Date: 25 January 2020
Orbit: 630 x 664 km, 48.4° (Epoch: 16 February)

Event Time Altitude Azimuth Distance (km) Brightness Sun altitude
Rises 17:51:42 0° 304° (NW) 2,984 11.2 -31.4°
Reaches altitude 10° 17:54:08 10° 298° (WNW) 2,073 10.4 -31.9°
Enters shadow 17:57:07 33° 273° (W) 1,113 8.8 -32.6°
